Location: Mountain_View
(35.6670°N, 81.4000°W)
Time: 04:50:04
(UTC-05:00)

ISS - Pass Details

Date: 19 November 2019
Orbit: 411 x 421 km, 51.6° (Epoch: 09 December)

Event Time Altitude Azimuth Distance (km) Brightness Sun altitude
Rises 19:21:37 0° 229° (SW) 2,342 0.9 -25.3°
Reaches altitude 10° 19:23:42 10° 230° (SW) 1,485 -0.3 -25.7°
Enters shadow 19:25:12 25° 232° (SW) 891 -1.6 -26.0°
